Date String (YYYY-MM-DD hh:mm:ss) UTC,Instrument flags,Ambient pressure (hPa),Sample flow (lpm),Bypass flow (lpm),Sample temperature (°C),Ambient temperature (°C),ASC tube jacket temperature (°C),LED temperature (°C),Box temperature (°C),Sample RH (%),Span deviation,Mass concentration (μg/m³),Mass concentration (μg/m³),Mass concentration (μg/m³)
DateTimeUTC,F1_M11,P_M11,Q1_M11,Q2_M11,T1_M11,T2_M11,T3_M11,T4_M11,T5_M11,U1_M11,ZSPAN_M11,X0_M11,X2_M11,X1_M11
2022-07-01 19:00:00,,0830.1,5.00,0.00,29.2,27.0,00.0,38.0,31.0,30.1,0000.0,0011.98,0004.60,0003.74
2022-07-01 19:01:00,,0830.1,5.00,0.00,29.2,27.1,00.0,37.9,31.0,29.9,0000.0,0012.23,0004.59,0003.75
2022-07-01 19:02:00,,0830.1,5.00,0.00,29.2,27.3,00.0,37.9,31.0,30.1,0000.0,0011.90,0004.65,0003.75
2022-07-01 19:03:00,,0830.1,5.00,0.00,29.2,27.5,00.0,37.9,31.1,29.7,0000.0,0012.18,0004.67,0003.75
2022-07-01 19:04:00,,0830.1,5.00,0.00,29.2,27.7,00.0,37.9,31.1,30.2,0000.0,0012.27,0004.66,0003.76
2022-07-01 19:05:00,,0830.0,4.99,0.00,29.2,27.8,00.0,38.0,31.2,30.3,0000.0,0012.39,0004.67,0003.78
2022-07-01 19:06:00,,0830.0,5.00,0.00,29.2,28.0,00.0,38.0,31.2,30.1,0000.0,0011.12,0004.66,0003.79
2022-07-01 19:07:00,,0830.0,5.00,0.00,29.3,28.1,00.0,38.0,31.3,29.5,0000.0,0011.37,0004.65,0003.80
2022-07-01 19:08:00,,0829.9,5.00,0.00,29.3,28.2,00.0,38.0,31.3,29.6,0000.0,0011.50,0004.63,0003.82
2022-07-01 19:09:00,,0830.0,4.99,0.00,29.3,28.4,00.0,38.0,31.4,29.5,0000.0,0011.28,0004.64,0003.82
2022-07-01 19:10:00,,0829.9,5.00,0.00,29.4,28.5,00.0,38.0,31.4,29.3,0000.0,0011.09,0004.65,0003.83
2022-07-01 19:11:00,,0829.8,5.00,0.00,29.4,28.5,00.0,38.1,31.4,29.6,0000.0,0010.96,0004.67,0003.83
2022-07-01 19:12:00,,0830.0,5.00,0.00,29.4,28.0,00.0,38.0,31.4,30.0,0000.0,0011.07,0004.68,0003.84
2022-07-01 19:13:00,,0829.9,5.01,0.00,29.4,27.3,00.0,38.0,31.2,29.9,0000.0,0010.84,0004.68,0003.88
2022-07-01 19:14:00,,0829.9,4.98,0.00,29.3,27.0,00.0,38.0,31.1,30.3,0000.0,0010.74,0004.71,0003.92
2022-07-01 19:15:00,,0829.9,5.00,0.00,29.3,27.0,00.0,38.0,31.1,30.6,0000.0,0010.81,0004.76,0003.94
2022-07-01 19:16:00,,0829.9,5.00,0.00,29.2,27.1,00.0,38.0,31.0,31.0,0000.0,0011.51,0004.79,0003.95
2022-07-01 19:17:00,,0829.9,5.00,0.00,29.2,27.3,00.0,38.0,31.1,30.6,0000.0,0012.71,0004.81,0003.96
2022-07-01 19:18:00,,0829.8,5.01,0.00,29.2,27.5,00.0,38.0,31.1,30.8,0000.0,0012.59,0004.78,0003.97
2022-07-01 19:19:00,,0829.8,5.00,0.00,29.2,27.7,00.0,38.0,31.1,30.4,0000.0,0012.67,0004.80,0004.00
2022-07-01 19:20:00,,0829.9,5.01,0.00,29.2,27.8,00.0,38.0,31.2,30.3,0000.0,0013.23,0004.81,0004.01
2022-07-01 19:21:00,,0829.9,5.00,0.00,29.3,28.0,00.0,38.0,31.2,30.1,0000.0,0013.16,0004.85,0004.04
2022-07-01 19:22:00,,0829.8,5.00,0.00,29.3,28.1,00.0,38.0,31.3,30.1,0000.0,0012.91,0004.89,0004.07
2022-07-01 19:23:00,,0829.8,5.00,0.00,29.3,28.3,00.0,38.0,31.3,30.1,0000.0,0012.63,0004.95,0004.08
2022-07-01 19:24:00,,0829.8,5.00,0.00,29.4,28.4,00.0,38.0,31.4,29.7,0000.0,0013.02,0004.98,0004.07
2022-07-01 19:25:00,,0829.8,5.00,0.00,29.4,28.5,00.0,38.1,31.4,29.7,0000.0,0013.78,0004.96,0004.07
2022-07-01 19:26:00,,0829.8,5.00,0.00,29.4,28.3,00.0,38.1,31.4,29.9,0000.0,0013.82,0004.93,0004.07
2022-07-01 19:27:00,,0829.8,5.00,0.00,29.4,27.6,00.0,38.0,31.3,29.9,0000.0,0014.49,0004.95,0004.08
2022-07-01 19:28:00,,0829.7,5.01,0.00,29.4,27.1,00.0,38.0,31.2,29.9,0000.0,0014.10,0004.99,0004.08
2022-07-01 19:29:00,,0829.7,4.99,0.00,29.3,27.0,00.0,38.0,31.1,30.0,0000.0,0014.13,0005.07,0004.10
2022-07-01 19:30:00,,0829.7,5.00,0.00,29.3,27.1,00.0,38.0,31.0,30.3,0000.0,0014.34,0005.15,0004.11
2022-07-01 19:31:00,,0829.7,5.00,0.00,29.2,27.2,00.0,38.0,31.1,29.9,0000.0,0013.80,0005.20,0004.12
2022-07-01 19:32:00,,0829.7,5.00,0.00,29.2,27.4,00.0,38.0,31.1,30.1,0000.0,0014.15,0005.20,0004.11
2022-07-01 19:33:00,,0829.7,4.99,0.00,29.2,27.6,00.0,38.0,31.1,30.0,0000.0,0014.82,0005.21,0004.11
2022-07-01 19:34:00,,0829.6,4.99,0.00,29.2,27.8,00.0,38.0,31.2,29.6,0000.0,0014.69,0005.18,0004.13
2022-07-01 19:35:00,,0829.6,5.00,0.00,29.2,27.9,00.0,38.0,31.2,30.0,0000.0,0014.66,0005.16,0004.15
2022-07-01 19:36:00,,0829.6,5.00,0.00,29.3,28.1,00.0,38.0,31.3,30.4,0000.0,0014.89,0005.16,0004.14
2022-07-01 19:37:00,,0829.6,5.00,0.00,29.3,28.2,00.0,38.0,31.3,30.0,0000.0,0016.16,0005.26,0004.17
2022-07-01 19:38:00,,0829.6,5.01,0.00,29.3,28.3,00.0,38.0,31.4,29.6,0000.0,0015.22,0005.28,0004.19
2022-07-01 19:39:00,,0829.7,4.99,0.00,29.4,28.5,00.0,38.1,31.4,29.6,0000.0,0014.42,0005.30,0004.21
2022-07-01 19:40:00,,0829.9,5.00,0.00,29.4,28.5,00.0,38.1,31.4,29.9,0000.0,0014.72,0005.32,0004.23
2022-07-01 19:41:00,,0829.7,5.01,0.00,29.4,27.9,00.0,38.0,31.4,29.9,0000.0,0014.56,0005.28,0004.23
2022-07-01 19:42:00,,0829.6,4.99,0.00,29.4,27.2,00.0,38.0,31.2,29.9,0000.0,0015.02,0005.29,0004.24
2022-07-01 19:43:00,,0829.6,4.99,0.00,29.3,27.0,00.0,38.0,31.1,29.8,0000.0,0015.96,0005.35,0004.27
2022-07-01 19:44:00,,0829.6,5.00,0.00,29.3,27.0,00.0,38.0,31.0,29.8,0000.0,0015.56,0005.37,0004.28
2022-07-01 19:45:00,,0829.5,5.01,0.00,29.2,27.2,00.0,38.0,31.0,29.9,0000.0,0015.60,0005.39,0004.30
2022-07-01 19:46:00,,0829.5,5.00,0.00,29.2,27.3,00.0,38.0,31.1,30.3,0000.0,0015.58,0005.44,0004.31
2022-07-01 19:47:00,,0829.5,5.00,0.00,29.2,27.5,00.0,38.0,31.1,30.5,0000.0,0014.62,0005.48,0004.32
2022-07-01 19:48:00,,0829.5,5.00,0.00,29.2,27.7,00.0,38.0,31.2,30.2,0000.0,0013.56,0005.42,0004.32
2022-07-01 19:49:00,,0829.5,4.98,0.00,29.2,27.9,00.0,38.0,31.2,30.4,0000.0,0013.62,0005.41,0004.33
2022-07-01 19:50:00,,0829.5,5.00,0.00,29.3,28.0,00.0,38.0,31.3,30.3,0000.0,0013.62,0005.43,0004.35
2022-07-01 19:51:00,,0829.5,4.99,0.00,29.3,28.2,00.0,38.0,31.3,30.1,0000.0,0013.48,0005.46,0004.37
2022-07-01 19:52:00,,0829.5,5.01,0.00,29.3,28.3,00.0,38.0,31.4,29.6,0000.0,0013.77,0005.51,0004.40
2022-07-01 19:53:00,,0829.5,5.00,0.00,29.4,28.4,00.0,38.1,31.4,29.7,0000.0,0013.82,0005.50,0004.40
2022-07-01 19:54:00,,0829.5,4.99,0.00,29.4,28.4,00.0,38.1,31.4,30.1,0000.0,0013.21,0005.44,0004.41
2022-07-01 19:55:00,,0829.5,5.00,0.00,29.4,27.8,00.0,38.0,31.3,29.8,0000.0,0012.97,0005.43,0004.42
2022-07-01 19:56:00,,0829.5,5.01,0.00,29.4,27.2,00.0,38.0,31.2,30.0,0000.0,0013.11,0005.48,0004.44
2022-07-01 19:57:00,,0829.5,5.00,0.00,29.3,27.0,00.0,38.0,31.1,30.3,0000.0,0013.25,0005.54,0004.46
2022-07-01 19:58:00,,0829.4,5.00,0.00,29.2,27.0,00.0,38.0,31.0,30.2,0000.0,0013.17,0005.54,0004.48
2022-07-01 19:59:00,,0829.4,5.00,0.00,29.2,27.2,00.0,38.0,31.0,30.3,0000.0,0012.98,0005.57,0004.49
